GSAT0205 (GALILEO 9) (40889 NORAD) Tracking and Keplerian Element Data

This shows tracking and keplerian element data for the satellite.

Feedback or suggestion? Click here.




ElementValue
Catalog40889
NameGSAT0205 (GALILEO 9)
Epoch Orbit4373
Epoch Day263.66557116
Epoch Year2022
RAAN259.3318
Inclination55.5662
Eccentricity0.0004062
Argument of Perigee349.8978
Mean Anonmoly10.105
Mean Motion1.70473397
Decay Rate3.9E-07
L11 40889U 15045A 22263.66557116 .00000039 00000+0 00000+0 0 9996
L22 40889 55.5662 259.3318 0004062 349.8978 10.1050 1.70473397 43736

Live tracking and technical data element details for GSAT0205 (GALILEO 9) (NORAD 40889). GSAT0205 (GALILEO 9) can be tracked NOW for your location showing map with azimuth and elevation plus other details from your city location.

Track the satellite on the map from your city or location and see movement details for azimuth, elevation, latitude, longitude, range, height, and movement on the map or in text.







IsCatalogInMostPopularTable: catalog: 40889, numindb: 774
Update: records affected: 1



GetName: 40889 GSAT0205 (GALILEO 9)

Hit Count: updated at: Fri, 30 Sep 2022 02:31:35 GMT